OpenBCM V1.08-5-g2f4a (Linux)

Packet Radio Mailbox

IZ3LSV

[San Dona' di P. JN]

 Login: GUEST





  
I0OJJ  > KEPS     02.03.25 09:07l 326 Lines 15583 Bytes #108 (0) @ AMSAT
BID : ORB25052.1
Read: GUEST
Subj: 2Line Orbital Elements 25052.AMSAT
Path: IZ3LSV<IW0QNL<IQ0FO<GB7COW<I3XTY<IQ5KG<I0OJJ
Sent: 250221/0345z @:I0OJJ.ITA.EU [Rome] obcm1.08-6-g5b69
From: I0OJJ @ I0OJJ.ITA.EU (Gustavo)
To:   KEPS @ AMSAT
X-Info: This message was generated automatically


QST de W1STR

AMSAT Orbital Elements for Amateur Satellites in TLE Format
From Orbital Analysis Office
New England Sci-Tech STEM Education Center
Natick, MA February 21, 2025
To all radio amateurs


These element sets describe the orbits of various satellites 
in use by the amateur radio community. For details see:
www.amsat.org/keplerian-elements-formats/

A daily update of element sets is available at:
www.amsat.org/tle/daily-bulletin.txt
or without bulletin text:
www.amsat.org/tle/dailytle.txt


AO-07
1 07530U 74089B   25051.88137410 -.00000019  00000-0  17188-3 0  9997
2 07530 101.9942  54.9856 0012044 330.7690  94.0078 12.53686275300443
UO-11
1 14781U 84021B   25051.47638972  .00003497  00000-0  37981-3 0  9999
2 14781  97.7409  20.1374 0007459 350.5880   9.5196 14.88735470185405
AO-27
1 22825U 93061C   25051.40339062  .00000305  00000-0  13391-3 0  9996
2 22825  98.7530 112.3432 0009411  75.4162 284.8064 14.30732681638104
FO-29
1 24278U 96046B   25051.47443441  .00000034  00000-0  73878-4 0  9996
2 24278  98.5866 319.6702 0348887 265.2260  90.8966 13.53237912408013
NOAA-15
1 25338U 98030A   25051.91505959  .00000354  00000-0  16342-3 0  9998
2 25338  98.5478  79.6025 0009470 322.0806  37.9707 14.26888264392909
GO-32
1 25397U 98043D   25051.52373583  .00000280  00000-0  14140-3 0  9992
2 25397  98.9585  28.4382 0001887 129.8077 230.3267 14.24256953382767
ISS
1 25544U 98067A   25051.80167311  .00022657  00000-0  41512-3 0  9998
2 25544  51.6345 163.4629 0006033 293.2866  66.7487 15.49199095497117
NO-44
1 26931U 01043C   25051.38738140  .00000562  00000-0  24174-3 0  9990
2 26931  67.0504  50.1385 0005957 264.7176  95.3246 14.31624925221478
SO-50
1 27607U 02058C   25051.72879606  .00003071  00000-0  40749-3 0  9993
2 27607  64.5542 176.3927 0043364   1.2648 358.8558 14.80989669193315
CO-55
1 27844U 03031E   25051.55358873  .00000833  00000-0  38309-3 0  9999
2 27844  98.6794  61.2272 0010428 139.2131 220.9830 14.23829340123124
CO-57
1 27848U 03031J   25051.52210553  .00000709  00000-0  33300-3 0  9990
2 27848  98.6823  61.2825 0010044 155.0011 205.1656 14.23188409122856
RS-22
1 27939U 03042A   25051.93017477  .00002588  00000-0  42221-3 0  9997
2 27939  98.3150 218.8537 0011490 359.0609 120.6053 14.71796070144849
NOAA-18
1 28654U 05018A   25051.82977749  .00000395  00000-0  23289-3 0  9999
2 28654  98.8502 132.5082 0015100  80.0132 280.2744 14.13520713 18385
CO-58
1 28895U 05043F   25051.38872012  .00004535  00000-0  75975-3 0  9991
2 28895  98.2298 194.5400 0013995 294.0524  65.9217 14.70209081 30890
CO-65
1 32785U 08021C   25051.86239151  .00010679  00000-0  81070-3 0  9996
2 32785  97.7724  22.4462 0009451 214.2602 145.8013 15.02345506912813
AAUSAT2
1 32788U 08021F   25051.55146527  .00106104  00000-0  19209-2 0  9992
2 32788  97.6070  43.5557 0005955  74.4575 285.7332 15.49254209916304
CO-66
1 32791U 08021J   25051.85231079  .00019427  00000-0  10653-2 0  9991
2 32791  97.7194  29.8579 0005249 148.5924 211.5622 15.14208037914097
RS-30
1 32953U 08025A   25051.83539994  .00000019  00000-0  66487-4 0  9995
2 32953  82.5022 294.8316 0018766 284.4163  75.4834 12.43159055760012
NOAA-19
1 33591U 09005A   25051.88925294  .00000326  00000-0  19782-3 0  9996
2 33591  99.0123 115.9251 0012932 313.1704  46.8386 14.13289757826757
SRMSAT
1 37841U 11058D   25051.43188862  .00000672  00000-0  22203-3 0  9998
2 37841  19.9719  95.0183 0011580 305.1890  82.6934 14.11365608689895
ZACUBE-1
1 39417U 13066B   25051.61813684  .00010485  00000-0  95007-3 0  9992
2 39417  97.7668   9.4316 0047726  57.5362 303.0460 14.94661739608624
Delfi-N3xt
1 39428U 13066N   25051.77201639  .00016256  00000-0  17477-2 0  9998
2 39428  97.8366 330.8222 0089253 359.7893   0.3270 14.85679023603082
GOMX-1
1 39430U 13066Q   25051.85523119  .00004195  00000-0  66419-3 0  9990
2 39430  97.6991 277.1413 0134014 179.6753 180.4563 14.66856333599463
LO-74
1 39440U 13066AA  25051.82993051  .00006442  00000-0  67754-3 0  9994
2 39440  97.8385 357.3373 0064083 176.8877 183.2751 14.88238345606452
AO-73
1 39444U 13066AE  25051.42819670  .00017415  00000-0  13976-2 0  9996
2 39444  97.7506  13.3153 0043150  35.9627 324.4486 14.99395530607216
DTUSAT-2
1 40030U 14033W   25051.87211162  .00012337  00000-0  85964-3 0  9990
2 40030  98.0427  18.7144 0011902  72.2597 287.9927 15.05527009580538
EO-80
1 40032U 14033Y   25051.89835924  .00012079  00000-0  83983-3 0  9994
2 40032  98.0329  18.5435 0009703  23.8543 336.3130 15.05632612580522
XW-2C
1 40906U 15049H   25047.62605869  .06460715  25777-5  82494-3 0  9990
2 40906  97.4284  83.7622 0006300 238.5188 121.5494 16.35922890522636
LILACSAT-2
1 40908U 15049K   25051.96694386  .00015169  00000-0  44688-3 0  9999
2 40908  97.5169  69.9114 0010035 177.7191 182.4099 15.35086779521543
IO-86
1 40931U 15052B   25038.81889873  .00001817  00000-0  15548-3 0  9993
2 40931   6.0001 108.1159 0012838 187.7041 172.2889 14.78568669506492
Horyu-4
1 41340U 16012D   25051.53785019  .00030094  00000-0  10023-2 0  9997
2 41340  30.9991 141.7358 0006245  19.2306 340.8572 15.29908922496030
Lapan A3
1 41603U 16040E   25051.88454912  .00006332  00000-0  23001-3 0  9992
2 41603  97.1404  60.8306 0009490 302.6869  57.3456 15.28586006481172
CAS-2T
1 41847U 16066G   25051.70110012  .00003564  00000-0  51459-3 0  9993
2 41847  98.4307 127.0996 0348685 147.6468 214.6636 14.42974118435316
CAS-4B
1 42759U 17034B   25051.90997940  .00048697  00000-0  90084-3 0  9990
2 42759  43.0100 242.3458 0018146 253.4118 106.4749 15.48100793425672
CAS-4A
1 42761U 17034D   25051.87342539  .00049309  00000-0  89536-3 0  9998
2 42761  43.0134 240.4833 0019416 258.7102 101.1576 15.48600061425684
TechnoSat
1 42829U 17042E   25051.46133086  .00007224  00000-0  57835-3 0  9999
2 42829  97.3894 225.4438 0011822 298.9168  61.0870 15.00394200414355
AO-91
1 43017U 17073E   25051.64399582  .00013847  00000-0  74634-3 0  9992
2 43017  97.5485 285.2469 0181314 176.7065 183.5402 15.01804077392843
S-Net D
1 43186U 18014G   25051.29776980  .00010321  00000-0  64008-3 0  9995
2 43186  97.5716 315.3959 0007829 234.4270 125.6230 15.09898321385878
S-Net B
1 43187U 18014H   25051.69950344  .00008220  00000-0  51073-3 0  9991
2 43187  97.5723 315.7590 0008664 227.6704 132.3792 15.09890196385933
S-Net A
1 43188U 18014J   25051.69612567  .00008535  00000-0  52987-3 0  9998
2 43188  97.5728 315.8920 0008592 228.5785 131.4707 15.09908795385937
S-Net C
1 43189U 18014K   25051.70165353  .00008128  00000-0  50497-3 0  9999
2 43189  97.5748 315.8930 0010234 220.8346 139.2118 15.09887611384489
Ten-Koh
1 43677U 18084G   25051.53956683  .00006543  00000-0  53795-3 0  9996
2 43677  98.0864 219.4654 0010138 269.7177  90.2883 14.99466839343893
PO-101
1 43678U 18084H   25051.57150007  .00003923  00000-0  34303-3 0  9990
2 43678  98.0949 223.6434 0007435 294.1800  65.8643 14.97363225344067
QO-100
1 43700U 18090A   25051.24836163  .00000156  00000-0  00000-0 0  9990
2 43700   0.0177 221.5794 0001308 143.0386 261.0207  1.00273994 22847
MinXSS-2
1 43758U 18099A   25051.75383926  .00021614  00000-0  98904-3 0  9997
2 43758  97.5174 117.7417 0013523 174.6819 185.4562 15.20456726340400
AO-95
1 43770U 18099N   25051.13337746  .00015192  00000-0  83985-3 0  9999
2 43770  97.5086 110.5715 0010784 227.6612 132.3707 15.13931769339973
RANGE-A
1 43773U 18099R   25051.60460561  .00008497  00000-0  56544-3 0  9997
2 43773  97.4666 103.1892 0011309 198.9654 161.1154 15.07329111339794
MOVE-II
1 43780U 18099Y   25051.75530462  .00075711  00000-0  17086-2 0  9999
2 43780  97.4816 122.1318 0004316 185.6530 174.4669 15.42937673340864
SNUSat 2
1 43782U 18099AA  25051.38067654  .00015473  00000-0  90612-3 0  9994
2 43782  97.4770 108.4137 0013150 166.6465 193.5116 15.11829746339980
SnugLite
1 43784U 18099AC  25051.91298946  .00013916  00000-0  76363-3 0  9992
2 43784  97.4585 108.3154 0004237 159.0977 201.0429 15.14255369340176
ITASat 1
1 43786U 18099AE  25051.74171409  .00010492  00000-0  63762-3 0  9994
2 43786  97.4742 108.5682 0014319 217.1827 142.8412 15.10567144340013
EAGLET 1
1 43790U 18099AJ  25051.62277600  .00007900  00000-0  52439-3 0  9995
2 43790  97.4940 108.7146 0012141 197.1546 162.9274 15.07436775339648
ESEO
1 43792U 18099AL  25051.56712345  .00003773  00000-0  29317-3 0  9993
2 43792  97.4589 103.3224 0011001 165.3189 194.8358 15.01843572339458
CSIM
1 43793U 18099AM  25051.74125664  .00083382  00000-0  18684-2 0  9994
2 43793  97.4998 124.1107 0007092 162.4204 197.7290 15.43101520340708
JO-97
1 43803U 18099AX  25051.70057794  .00016849  00000-0  85795-3 0  9992
2 43803  97.4831 111.9450 0008659 158.9148 201.2444 15.16837892340247
Suomi 100
1 43804U 18099AY  25051.62565244  .00015660  00000-0  83916-3 0  9991
2 43804  97.4902 111.4297 0013825 162.3564 197.8151 15.15000083340184
ISAT
1 43879U 18111D   25051.71956357  .00026365  00000-0  11039-2 0  9997
2 43879  97.6027 324.1539 0008565 207.5314 152.5470 15.23497055335069
UWE-4
1 43880U 18111E   25051.58777198  .00021019  00000-0  95390-3 0  9992
2 43880  97.5963 323.1597 0011535 224.8143 135.2161 15.20770118337030
Sparrow
1 43881U 18111F   25051.51582520  .00028724  00000-0  11712-2 0  9994
2 43881  97.6147 326.4461 0005336 257.8383 102.2256 15.24394190337132
Prox-1
1 44339U 19036A   25051.33899336  .00020483  00000-0  28503-2 0  9996
2 44339  23.9981  57.5702 0007357 261.4467  98.5196 14.76269434301834
SONATE
1 44400U 19038Q   25051.55849233  .00074135  00000-0  91906-3 0  9993
2 44400  97.7097  66.9084 0006472 294.9194  65.1389 15.59784800312424
